Вернуться в каталог

STARLINK-11446

АктивенСвязьVLEO
NORAD 62416·PAYLOAD·🇺🇸 United States

Запущен Dec 23, 2024 с Cape Canaveral Space Force Station

Loading…

Ближайшие Пролёты (ближайшие 24 часа)

TLE

СвежийSource: CelesTrak SupGP

Эпоха: Sep 15, 2026, 02:41 UTC

1 62416C 24249H   26258.11229167  .00095006  00000+0  73933-3 0  2587
2 62416  43.0003 105.4398 0001301 264.4396 208.9080 15.70746421    15

Отслеживайте STARLINK-11446 в реальном времени с AllMySat

Download on the App Store